Time,TemperatureF,DewpointF,PressureIn,WindDirection,WindDirectionDegrees,WindSpeedMPH,WindSpeedGustMPH,Humidity,HourlyPrecipIn,Conditions,Clouds,dailyrainin,SoftwareType,DateUTC
2013-04-13 07:38:00,71.0,68.0,29.92,ESE,113,7.0,12.0,89,0.00,,,0.00,,2013-04-13 17:38:00,
2013-04-13 07:45:00,71.0,68.0,29.92,ESE,113,7.0,12.0,89,0.00,,,0.00,,2013-04-13 17:45:00,
2013-04-13 08:02:00,72.0,69.0,29.92,ESE,111,6.0,11.0,89,0.00,,,0.00,,2013-04-13 18:02:00,
2013-04-13 08:12:00,72.0,69.0,29.92,ESE,121,5.0,13.0,89,0.00,,,0.00,,2013-04-13 18:12:00,
2013-04-13 08:22:00,72.0,68.0,29.92,ESE,115,6.0,17.0,88,0.00,,,0.00,,2013-04-13 18:22:00,
2013-04-13 08:32:00,72.0,68.0,29.93,ESE,108,6.0,12.0,88,0.00,,,0.00,,2013-04-13 18:32:00,
2013-04-13 08:42:00,72.0,68.0,29.93,ESE,108,6.0,12.0,88,0.00,,,0.00,,2013-04-13 18:42:00,
2013-04-13 08:53:00,72.0,68.0,29.93,SE,134,5.0,11.0,87,0.00,,,0.00,,2013-04-13 18:53:00,
2013-04-13 09:02:00,73.0,69.0,29.92,SSE,149,7.0,12.0,86,0.00,,,0.00,,2013-04-13 19:02:00,
2013-04-13 09:12:00,73.0,69.0,29.92,SSE,149,7.0,12.0,86,0.00,,,0.00,,2013-04-13 19:12:00,
2013-04-13 09:22:00,74.0,68.0,29.92,ESE,103,7.0,12.0,83,0.00,,,0.00,,2013-04-13 19:22:00,
2013-04-13 09:32:00,75.0,69.0,29.93,East,101,5.0,13.0,81,0.00,,,0.00,,2013-04-13 19:32:00,
2013-04-13 09:41:00,75.0,69.0,29.93,East,101,5.0,13.0,81,0.00,,,0.00,,2013-04-13 19:41:00,
2013-04-13 09:53:00,75.0,68.0,29.93,ESE,121,3.0,11.0,80,0.00,,,0.00,,2013-04-13 19:53:00,
2013-04-13 10:01:00,75.0,69.0,29.93,ESE,106,4.0,11.0,81,0.00,,,0.00,,2013-04-13 20:01:00,
2013-04-13 10:11:00,75.0,69.0,29.93,ESE,106,4.0,11.0,81,0.00,,,0.00,,2013-04-13 20:11:00,
2013-04-13 10:22:00,75.0,69.0,29.93,SE,146,6.0,14.0,81,0.00,,,0.00,,2013-04-13 20:22:00,
2013-04-13 10:31:00,76.0,69.0,29.93,SSE,147,9.0,15.0,78,0.00,,,0.00,,2013-04-13 20:31:00,
2013-04-13 10:42:00,76.0,69.0,29.93,SSE,147,9.0,15.0,78,0.00,,,0.00,,2013-04-13 20:42:00,
2013-04-13 10:52:00,76.0,69.0,29.94,ESE,115,4.0,12.0,79,0.00,,,0.00,,2013-04-13 20:52:00,
2013-04-13 11:01:00,75.0,68.0,29.93,SE,136,6.0,15.0,80,0.00,,,0.00,,2013-04-13 21:01:00,
2013-04-13 11:11:00,75.0,68.0,29.93,SE,136,6.0,15.0,80,0.00,,,0.00,,2013-04-13 21:11:00,
2013-04-13 11:21:00,75.0,69.0,29.94,SE,142,4.0,12.0,81,0.00,,,0.00,,2013-04-13 21:21:00,
2013-04-13 11:32:00,75.0,69.0,29.94,SSE,160,5.0,14.0,81,0.00,,,0.00,,2013-04-13 21:32:00,
2013-04-13 11:42:00,75.0,69.0,29.94,SSE,160,5.0,14.0,81,0.00,,,0.00,,2013-04-13 21:42:00,
2013-04-13 11:52:00,75.0,69.0,29.95,SSE,156,5.0,9.0,81,0.00,,,0.00,,2013-04-13 21:52:00,
2013-04-13 12:02:00,75.0,68.0,29.96,SSE,159,4.0,10.0,79,0.00,,,0.00,,2013-04-13 22:02:00,
2013-04-13 12:12:00,75.0,68.0,29.96,SSE,159,4.0,10.0,79,0.00,,,0.00,,2013-04-13 22:12:00,
2013-04-13 12:22:00,75.0,69.0,29.96,SSW,193,3.0,8.0,81,0.00,,,0.00,,2013-04-13 22:22:00,
2013-04-13 12:32:00,75.0,68.0,29.96,SW,229,5.0,9.0,79,0.00,,,0.00,,2013-04-13 22:32:00,
2013-04-13 12:42:00,75.0,68.0,29.96,SW,229,5.0,9.0,79,0.00,,,0.00,,2013-04-13 22:42:00,
2013-04-13 12:52:00,76.0,69.0,29.97,WSW,238,6.0,10.0,79,0.00,,,0.00,,2013-04-13 22:52:00,
2013-04-13 13:01:00,77.0,70.0,29.96,West,266,4.0,9.0,79,0.00,,,0.00,,2013-04-13 23:01:00,
2013-04-13 13:12:00,77.0,69.0,29.96,West,262,6.0,16.0,77,0.00,,,0.00,,2013-04-13 23:12:00,
2013-04-13 13:22:00,77.0,69.0,29.96,West,262,6.0,16.0,77,0.00,,,0.00,,2013-04-13 23:22:00,
2013-04-13 13:32:00,76.0,69.0,29.96,SW,225,5.0,14.0,78,0.00,,,0.00,,2013-04-13 23:32:00,
2013-04-13 13:41:00,76.0,69.0,29.96,SW,225,5.0,14.0,78,0.00,,,0.00,,2013-04-13 23:41:00,
2013-04-13 13:52:00,76.0,69.0,29.95,SSW,212,5.0,11.0,79,0.00,,,0.00,,2013-04-13 23:52:00,
2013-04-13 14:01:00,75.0,68.0,29.92,SW,226,2.0,7.0,80,0.00,,,0.00,,2013-04-14 00:01:00,
2013-04-13 14:11:00,75.0,68.0,29.92,SW,226,2.0,7.0,80,0.00,,,0.00,,2013-04-14 00:11:00,
2013-04-13 14:22:00,75.0,67.0,29.91,SSE,164,3.0,6.0,76,0.00,,,0.00,,2013-04-14 00:22:00,
2013-04-13 14:31:00,76.0,69.0,29.90,ESE,102,4.0,10.0,78,0.00,,,0.00,,2013-04-14 00:31:00,
2013-04-13 14:41:00,76.0,69.0,29.90,ESE,102,4.0,10.0,78,0.00,,,0.00,,2013-04-14 00:41:00,
2013-04-13 14:52:00,77.0,69.0,29.91,West,272,3.0,5.0,76,0.00,,,0.00,,2013-04-14 00:52:00,
2013-04-13 15:02:00,77.0,66.0,29.91,SSW,205,2.0,5.0,68,0.00,,,0.00,,2013-04-14 01:02:00,
2013-04-13 15:11:00,77.0,66.0,29.91,SSW,205,2.0,5.0,68,0.00,,,0.00,,2013-04-14 01:11:00,
2013-04-13 15:22:00,77.0,66.0,29.92,WSW,250,3.0,7.0,70,0.00,,,0.00,,2013-04-14 01:22:00,
2013-04-13 15:32:00,77.0,67.0,29.91,WSW,240,4.0,9.0,72,0.00,,,0.00,,2013-04-14 01:32:00,
2013-04-13 15:42:00,77.0,67.0,29.91,WSW,240,4.0,9.0,72,0.00,,,0.00,,2013-04-14 01:42:00,
2013-04-13 15:52:00,77.0,68.0,29.91,WSW,240,3.0,7.0,73,0.00,,,0.00,,2013-04-14 01:52:00,
2013-04-13 16:01:00,76.0,67.0,29.92,West,273,6.0,10.0,75,0.00,,,0.00,,2013-04-14 02:01:00,
2013-04-13 16:11:00,75.0,68.0,29.92,West,259,3.0,6.0,79,0.00,,,0.00,,2013-04-14 02:11:00,
2013-04-13 16:21:00,75.0,68.0,29.92,West,259,3.0,6.0,79,0.00,,,0.00,,2013-04-14 02:21:00,
2013-04-13 16:31:00,74.0,67.0,29.92,West,270,4.0,7.0,80,0.00,,,0.00,,2013-04-14 02:31:00,
2013-04-13 16:42:00,74.0,67.0,29.92,West,270,4.0,7.0,80,0.00,,,0.00,,2013-04-14 02:42:00,
2013-04-13 16:53:00,74.0,68.0,29.93,West,267,3.0,10.0,83,0.00,,,0.00,,2013-04-14 02:53:00,
2013-04-13 17:02:00,73.0,68.0,29.93,WSW,240,6.0,9.0,85,0.00,,,0.00,,2013-04-14 03:02:00,
2013-04-13 17:11:00,73.0,68.0,29.93,WSW,240,6.0,9.0,85,0.00,,,0.00,,2013-04-14 03:11:00,
2013-04-13 17:21:00,73.0,69.0,29.91,SSW,208,3.0,8.0,87,0.00,,,0.00,,2013-04-14 03:21:00,
2013-04-13 17:32:00,73.0,69.0,29.86,SE,136,11.0,16.0,87,0.00,,,0.00,,2013-04-14 03:32:00,
2013-04-13 17:42:00,73.0,69.0,29.86,SE,136,11.0,16.0,87,0.00,,,0.00,,2013-04-14 03:42:00,
2013-04-13 17:53:00,73.0,70.0,29.91,SSE,166,4.0,10.0,89,0.00,,,0.00,,2013-04-14 03:53:00,
2013-04-13 18:02:00,72.0,69.0,29.91,South,183,1.0,8.0,90,0.00,,,0.00,,2013-04-14 04:02:00,
2013-04-13 18:12:00,72.0,69.0,29.91,South,183,1.0,8.0,90,0.00,,,0.00,,2013-04-14 04:12:00,
2013-04-13 18:22:00,72.0,69.0,29.92,SW,221,1.0,6.0,90,0.00,,,0.00,,2013-04-14 04:22:00,
2013-04-13 18:32:00,72.0,69.0,29.93,SSE,155,0.0,6.0,89,0.00,,,0.00,,2013-04-14 04:32:00,
2013-04-13 18:42:00,72.0,69.0,29.93,SSE,155,0.0,6.0,89,0.00,,,0.00,,2013-04-14 04:42:00,
2013-04-13 18:52:00,72.0,68.0,29.94,SSE,155,0.0,0.0,88,0.00,,,0.00,,2013-04-14 04:52:00,
2013-04-13 19:01:00,72.0,68.0,29.94,SSE,154,0.0,0.0,87,0.00,,,0.00,,2013-04-14 05:01:00,
2013-04-13 19:11:00,72.0,68.0,29.94,SSE,154,0.0,0.0,87,0.00,,,0.00,,2013-04-14 05:11:00,
2013-04-13 19:22:00,72.0,68.0,29.94,SSE,153,0.0,0.0,87,0.00,,,0.00,,2013-04-14 05:22:00,
2013-04-13 19:32:00,72.0,68.0,29.93,East,94,1.0,5.0,86,0.00,,,0.00,,2013-04-14 05:32:00,
2013-04-13 19:42:00,72.0,68.0,29.93,East,94,1.0,5.0,86,0.00,,,0.00,,2013-04-14 05:42:00,
2013-04-13 19:52:00,72.0,67.0,29.94,East,95,0.0,5.0,85,0.00,,,0.00,,2013-04-14 05:52:00,
2013-04-13 20:01:00,72.0,67.0,29.93,East,81,0.0,5.0,85,0.00,,,0.00,,2013-04-14 06:01:00,
2013-04-13 20:11:00,72.0,67.0,29.93,East,81,0.0,5.0,85,0.00,,,0.00,,2013-04-14 06:11:00,
2013-04-13 20:21:00,72.0,67.0,29.93,East,84,4.0,6.0,84,0.00,,,0.00,,2013-04-14 06:21:00,
2013-04-13 20:32:00,73.0,68.0,29.92,East,84,7.0,11.0,84,0.00,,,0.00,,2013-04-14 06:32:00,
2013-04-13 20:42:00,73.0,68.0,29.92,East,84,7.0,11.0,84,0.00,,,0.00,,2013-04-14 06:42:00,
2013-04-13 20:52:00,73.0,68.0,29.94,ENE,60,0.0,5.0,83,0.00,,,0.00,,2013-04-14 06:52:00,
2013-04-13 21:01:00,73.0,68.0,29.95,ENE,60,2.0,4.0,84,0.00,,,0.00,,2013-04-14 07:01:00,
2013-04-13 21:11:00,73.0,68.0,29.95,ENE,60,2.0,4.0,84,0.00,,,0.00,,2013-04-14 07:11:00,
2013-04-13 21:21:00,72.0,67.0,29.96,ENE,60,1.0,3.0,84,0.00,,,0.00,,2013-04-14 07:21:00,
2013-04-13 21:31:00,72.0,67.0,29.96,ENE,60,1.0,3.0,85,0.00,,,0.00,,2013-04-14 07:31:00,
2013-04-13 21:42:00,72.0,67.0,29.96,ENE,60,1.0,3.0,85,0.00,,,0.00,,2013-04-14 07:42:00,
2013-04-13 21:52:00,72.0,68.0,29.97,ENE,60,0.0,3.0,87,0.00,,,0.00,,2013-04-14 07:52:00,
2013-04-13 22:01:00,72.0,69.0,29.97,ENE,60,1.0,4.0,89,0.00,,,0.00,,2013-04-14 08:01:00,
2013-04-13 22:11:00,72.0,69.0,29.97,ENE,60,1.0,4.0,89,0.00,,,0.00,,2013-04-14 08:11:00,
2013-04-13 22:21:00,72.0,69.0,29.96,ENE,60,0.0,4.0,90,0.00,,,0.00,,2013-04-14 08:21:00,
2013-04-13 22:31:00,72.0,69.0,29.96,SE,126,1.0,5.0,91,0.00,,,0.00,,2013-04-14 08:31:00,
2013-04-13 22:42:00,72.0,69.0,29.96,SE,126,1.0,5.0,91,0.00,,,0.00,,2013-04-14 08:42:00,
2013-04-13 22:52:00,72.0,69.0,29.96,SE,129,2.0,5.0,91,0.00,,,0.00,,2013-04-14 08:52:00,
2013-04-13 23:02:00,72.0,69.0,29.96,East,98,4.0,6.0,91,0.00,,,0.00,,2013-04-14 09:02:00,
2013-04-13 23:11:00,72.0,69.0,29.96,East,98,4.0,6.0,91,0.00,,,0.00,,2013-04-14 09:11:00,
2013-04-13 23:22:00,72.0,70.0,29.96,ESE,111,4.0,5.0,92,0.00,,,0.00,,2013-04-14 09:22:00,
2013-04-13 23:32:00,72.0,70.0,29.96,ESE,106,2.0,5.0,92,0.00,,,0.00,,2013-04-14 09:32:00,
2013-04-13 23:42:00,72.0,70.0,29.96,ESE,106,2.0,5.0,92,0.00,,,0.00,,2013-04-14 09:42:00,
2013-04-13 23:53:00,72.0,70.0,29.96,ESE,106,2.0,5.0,92,0.00,,,0.00,,2013-04-14 09:53:00,